{"data":{"norad_id":64929,"intl_designator":"2025-157AB","name":"STARLINK-34290","alt_names":[],"object_type":"PAYLOAD","status":"ACTIVE","operator":null,"country":"US","launch_date":"2025-07-26","launch_site_code":"AFETR","launch_vehicle":null,"mission":null,"orbit_class":"UNKNOWN","rcs_meters":null,"size_class":null,"mass_kg":null,"dimensions":null,"purposes":["comms"],"wikipedia_slug":null,"has_3d_model":false,"image_url":null,"decayed_at":null,"tle_current":{"epoch":"2026-09-20T03:17:18.476160Z","epoch_age_seconds":155624,"freshness":"FRESH","line1":"1 64929U 25157AB  26263.13701940  .00014965  00000+0  45313-3 0  9997","line2":"2 64929  53.1558 159.7084 0001153 100.0120 260.1013 15.34402187 65938","mean_motion":15.34402187,"eccentricity":0.0001153,"inclination_deg":53.1558,"raan_deg":159.7084,"arg_perigee_deg":100.012,"mean_anomaly_deg":260.1013,"bstar":0.00045313,"rev_number":6593,"period_min":93.847624319112,"perigee_km":461.90799185971,"apogee_km":463.48548812016,"semimajor_km":6840.8337399899,"source":"CELESTRAK","updated_at":"2026-09-21T09:00:35.484954Z"}}}